Find Starlink 35287

NORAD ID: 65754 Int'l Des: 2025-216 Owner: SPXS Country: US Constellation: starlink operational
LEOCIRCULAR

Current View

Loading 3D Globe...

About Starlink 35287

Description loading...

Upcoming Passes

Passes for default location (London). Set your location on the main map for personalized predictions.

Altitude History

Loading altitude history...

Two-Line Element Set

1 65754U 25216W 26158.79000444 .00029587 00000-0 10076-2 0 9990
2 65754 53.1599 274.0068 0001324 93.4566 266.6586 15.30182352 40307
Epoch: Jun 7, 2026 • Age: 7 hours

Current Status

Altitude 480.1 km
Velocity 7.63 km/s
Sub-Earth Point 49.33°N, 53.31°E
Launch Date Sep 25, 2025
Age 0.6 years
Type internet

Technical Details

Classification Payload
Mass 575.00 kg
Dry Mass 530.00 kg
Total Mass 575.00 kg
Length 0.30 m
Diameter 4.10 m
Span 29.00 m
Shape Box + pan
Manufacturer SPXS
Bus Type Starlink V2MO
Phase Status In Orbit
Owner/State SPXS/US

Most Searched